| time (UTC) | temp F | wind direction | speed MPH | gust MPH | rain 1hr in | rain 24hr in | rain mn in | humidity % | barometer mb |
| 20260831015007 | 69 | 7 | 2.0 | 3.0 | 0.00 | 0.00 | 0.00 | 1016.3 | |
| 20260831014009 | 70 | 359 | 5.0 | 4.0 | 0.00 | 0.00 | 0.00 | 1016.3 | |
| 20260831013012 | 70 | 325 | 6.0 | 7.0 | 0.00 | 0.00 | 0.00 | 1016.3 | |
| 20260831012007 | 70 | 315 | 6.0 | 5.0 | 0.00 | 0.00 | 0.00 | 1016.3 | |
| 20260831011005 | 71 | 346 | 0.0 | 0.0 | 0.00 | 0.00 | 0.00 | 1016.2 | |
| 20260831010003 | 70 | 7 | 0.0 | 0.0 | 0.00 | 0.00 | 0.00 | 1016.1 | |
| 20260831005006 | 71 | 7 | 0.0 | 0.0 | 0.00 | 0.00 | 0.00 | 1016.1 | |
| 20260831004000 | 71 | 7 | 0.0 | 0.0 | 0.00 | 0.00 | 0.00 | 1016.0 | |
| 20260831003001 | 72 | 55 | 1.0 | 0.0 | 0.00 | 0.00 | 0.00 | 1016.0 | |
| 20260831001958 | 72 | 280 | 0.0 | 1.0 | 0.00 | 0.00 | 0.00 | 1015.8 | |
| 20260831000952 | 72 | 314 | 4.0 | 3.0 | 0.00 | 0.00 | 0.00 | 1015.7 | |
| 20260830235955 | 72 | 31 | 5.0 | 2.0 | 0.00 | 0.00 | 0.00 | 1015.7 | |
| 20260830234954 | 72 | 322 | 2.0 | 3.0 | 0.00 | 0.00 | 0.00 | 1015.8 | |
| 20260830233955 | 72 | 27 | 3.0 | 1.0 | 0.00 | 0.00 | 0.00 | 1015.7 | |
| 20260830232954 | 72 | 284 | 2.0 | 3.0 | 0.00 | 0.00 | 0.00 | 1015.8 | |
| 20260830231947 | 73 | 305 | 3.0 | 3.0 | 0.00 | 0.00 | 0.00 | 1016.0 | |
| 20260830230950 | 73 | 343 | 2.0 | 3.0 | 0.00 | 0.00 | 0.00 | 1015.7 | |
| 20260830225941 | 73 | 319 | 0.0 | 0.0 | 0.00 | 0.00 | 0.00 | 1015.7 | |
| 20260830224943 | 73 | 325 | 1.0 | 1.0 | 0.00 | 0.00 | 0.00 | 1015.7 | |
| 20260830223946 | 73 | 190 | 0.0 | 0.0 | 0.00 | 0.00 | 0.00 | 1015.7 | |
| 20260830222948 | 74 | 190 | 0.0 | 0.0 | 0.00 | 0.00 | 0.00 | 1015.7 | |
| 20260830221948 | 75 | 190 | 0.0 | 0.0 | 0.00 | 0.00 | 0.00 | 1015.6 | |
| 20260830220950 | 75 | 190 | 0.0 | 0.0 | 0.00 | 0.00 | 0.00 | 1015.5 | |
| 20260830215953 | 75 | 190 | 0.0 | 0.0 | 0.00 | 0.00 | 0.00 | 1015.5 | |
| 20260830214947 | 75 | 190 | 0.0 | 0.0 | 0.00 | 0.00 | 0.00 | 1015.4 | |
| 20260830213947 | 76 | 203 | 2.0 | 1.0 | 0.00 | 0.00 | 0.00 | 1015.4 | |
| 20260830212949 | 77 | 181 | 2.0 | 1.0 | 0.00 | 0.00 | 0.00 | 1015.3 | |
| 20260830211944 | 77 | 186 | 2.0 | 2.0 | 0.00 | 0.00 | 0.00 | 1015.2 | |
| 20260830210946 | 77 | 160 | 0.0 | 0.0 | 0.00 | 0.00 | 0.00 | 1015.2 | |
| 20260830205949 | 77 | 177 | 2.0 | 2.0 | 0.00 | 0.00 | 0.00 | 1015.1 | |
| 20260830204951 | 77 | 183 | 0.0 | 0.0 | 0.00 | 0.00 | 0.00 | 1015.0 | |
| 20260830203941 | 78 | 203 | 1.0 | 0.0 | 0.00 | 0.00 | 0.00 | 1015.1 | |
| 20260830202944 | 79 | 212 | 0.0 | 0.0 | 0.00 | 0.00 | 0.00 | 1014.9 | |
| 20260830201943 | 79 | 212 | 0.0 | 0.0 | 0.00 | 0.00 | 0.00 | 1014.8 | |
| 20260830200944 | 79 | 212 | 0.0 | 0.0 | 0.00 | 0.00 | 0.00 | 1014.7 | |
| 20260830195939 | 79 | 212 | 0.0 | 0.0 | 0.00 | 0.00 | 0.00 | 1014.7 | |
| 20260830194942 | 80 | 212 | 0.0 | 0.0 | 0.00 | 0.00 | 0.00 | 1014.7 | |
| 20260830193944 | 80 | 212 | 0.0 | 0.0 | 0.00 | 0.00 | 0.00 | 1014.5 | |
| 20260830192940 | 81 | 212 | 0.0 | 0.0 | 0.00 | 0.00 | 0.00 | 1014.4 | |
| 20260830191943 | 81 | 212 | 0.0 | 0.0 | 0.00 | 0.00 | 0.00 | 1014.3 | |
| 20260830190943 | 82 | 215 | 2.0 | 3.0 | 0.00 | 0.00 | 0.00 | 1014.2 | |
| 20260830185946 | 82 | 226 | 3.0 | 3.0 | 0.00 | 0.00 | 0.00 | 1014.1 | |
| 20260830184948 | 83 | 243 | 0.0 | 0.0 | 0.00 | 0.00 | 0.00 | 1014.0 | |
| 20260830184023 | 82 | 246 | 3.0 | 3.0 | 0.00 | 0.00 | 0.00 | 1014.1 | |
| 20260830183951 | 82 | 246 | 3.0 | 3.0 | 0.00 | 0.00 | 0.00 | 1014.1 | |
| 20260830182953 | 83 | 219 | 3.0 | 4.0 | 0.00 | 0.00 | 0.00 | 1014.0 | |
| 20260830181945 | 84 | 214 | 1.0 | 0.0 | 0.00 | 0.00 | 0.00 | 1014.0 | |
| 20260830180947 | 84 | 226 | 3.0 | 3.0 | 0.00 | 0.00 | 0.00 | 1014.0 | |
| 20260830175950 | 84 | 264 | 4.0 | 5.0 | 0.00 | 0.00 | 0.00 | 1013.9 | |
| 20260830174945 | 85 | 212 | 3.0 | 7.0 | 0.00 | 0.00 | 0.00 | 1013.9 | |
| 20260830173948 | 86 | 224 | 6.0 | 6.0 | 0.00 | 0.00 | 0.00 | 1013.9 | |
| 20260830172950 | 86 | 219 | 4.0 | 9.0 | 0.00 | 0.00 | 0.00 | 1013.8 | |
| 20260830171950 | 86 | 232 | 7.0 | 6.0 | 0.00 | 0.00 | 0.00 | 1013.8 | |
| 20260830170945 | 87 | 181 | 6.0 | 9.0 | 0.00 | 0.00 | 0.00 | 1013.7 | |
| 20260830165947 | 86 | 257 | 7.0 | 7.0 | 0.00 | 0.00 | 0.00 | 1013.7 | |
| 20260830164948 | 88 | 239 | 7.0 | 7.0 | 0.00 | 0.00 | 0.00 | 1013.6 | |
| 20260830163950 | 88 | 177 | 7.0 | 8.0 | 0.00 | 0.00 | 0.00 | 1013.6 | |
| 20260830162950 | 88 | 215 | 6.0 | 7.0 | 0.00 | 0.00 | 0.00 | 1013.6 | |
| 20260830161952 | 89 | 201 | 9.0 | 14.0 | 0.00 | 0.00 | 0.00 | 1013.5 | |
| 20260830160949 | 89 | 218 | 5.0 | 5.0 | 0.00 | 0.00 | 0.00 | 1013.5 | |
| 20260830155941 | 88 | 167 | 10.0 | 13.0 | 0.00 | 0.00 | 0.00 | 1013.4 | |
| 20260830154943 | 89 | 205 | 10.0 | 10.0 | 0.00 | 0.00 | 0.00 | 1013.4 | |
| 20260830153944 | 89 | 156 | 10.0 | 8.0 | 0.00 | 0.00 | 0.00 | 1013.4 | |
| 20260830152936 | 89 | 208 | 5.0 | 7.0 | 0.00 | 0.00 | 0.00 | 1013.3 | |
| 20260830151931 | 89 | 212 | 8.0 | 4.0 | 0.00 | 0.00 | 0.00 | 1013.4 | |
| 20260830150925 | 89 | 222 | 10.0 | 14.0 | 0.00 | 0.00 | 0.00 | 1013.6 | |
| 20260830145927 | 89 | 240 | 12.0 | 6.0 | 0.00 | 0.00 | 0.00 | 1013.6 | |
| 20260830144921 | 89 | 195 | 13.0 | 11.0 | 0.00 | 0.00 | 0.00 | 1013.6 | |
| 20260830143949 | 90 | 143 | 8.0 | 10.0 | 0.00 | 0.00 | 0.00 | 1013.6 | |
| 20260830143918 | 90 | 143 | 8.0 | 10.0 | 0.00 | 0.00 | 0.00 | 1013.6 | |
| 20260830142915 | 90 | 208 | 8.0 | 11.0 | 0.00 | 0.00 | 0.00 | 1013.8 | |
| 20260830141917 | 91 | 284 | 7.0 | 4.0 | 0.00 | 0.00 | 0.00 | 1013.9 | |
| 20260830140919 | 91 | 193 | 9.0 | 13.0 | 0.00 | 0.00 | 0.00 | 1013.9 | |
| 20260830135922 | 90 | 194 | 10.0 | 9.0 | 0.00 | 0.00 | 0.00 | 1014.0 | |
| 20260830134924 | 90 | 214 | 9.0 | 5.0 | 0.00 | 0.00 | 0.00 | 1014.1 | |
| 20260830133921 | 91 | 207 | 9.0 | 12.0 | 0.00 | 0.00 | 0.00 | 1014.1 | |
| 20260830132923 | 89 | 208 | 7.0 | 7.0 | 0.00 | 0.00 | 0.00 | 1014.2 | |
| 20260830131926 | 91 | 158 | 5.0 | 8.0 | 0.00 | 0.00 | 0.00 | 1014.1 | |
| 20260830130928 | 91 | 113 | 6.0 | 8.0 | 0.00 | 0.00 | 0.00 | 1014.2 | |
| 20260830125931 | 91 | 139 | 8.0 | 8.0 | 0.00 | 0.00 | 0.00 | 1014.2 | |
| 20260830124922 | 91 | 186 | 9.0 | 9.0 | 0.00 | 0.00 | 0.00 | 1014.4 | |
| 20260830123916 | 91 | 148 | 7.0 | 5.0 | 0.00 | 0.00 | 0.00 | 1014.5 | |
| 20260830122910 | 91 | 155 | 5.0 | 6.0 | 0.00 | 0.00 | 0.00 | 1014.6 | |
| 20260830121912 | 91 | 166 | 4.0 | 9.0 | 0.00 | 0.00 | 0.00 | 1014.7 | |
| 20260830120915 | 91 | 198 | 7.0 | 10.0 | 0.00 | 0.00 | 0.00 | 1014.8 | |
| 20260830115917 | 91 | 158 | 6.0 | 10.0 | 0.00 | 0.00 | 0.00 | 1014.8 | |
| 20260830114916 | 90 | 166 | 2.0 | 4.0 | 0.00 | 0.00 | 0.00 | 1015.0 | |
| 20260830113919 | 89 | 224 | 8.0 | 6.0 | 0.00 | 0.00 | 0.00 | 1015.1 | |
| 20260830112917 | 89 | 139 | 5.0 | 5.0 | 0.00 | 0.00 | 0.00 | 1015.3 | |
| 20260830111911 | 90 | 153 | 3.0 | 3.0 | 0.00 | 0.00 | 0.00 | 1015.3 | |
| 20260830110912 | 89 | 134 | 3.0 | 2.0 | 0.00 | 0.00 | 0.00 | 1015.6 | |
| 20260830105906 | 87 | 83 | 1.0 | 2.0 | 0.00 | 0.00 | 0.00 | 1015.7 | |
| 20260830104906 | 88 | 143 | 4.0 | 4.0 | 0.00 | 0.00 | 0.00 | 1015.7 | |
| 20260830103908 | 87 | 42 | 1.0 | 0.0 | 0.00 | 0.00 | 0.00 | 1016.0 | |
| 20260830102906 | 87 | 179 | 2.0 | 5.0 | 0.00 | 0.00 | 0.00 | 1016.1 | |
| 20260830101828 | 85 | 176 | 3.0 | 0.0 | 0.00 | 0.00 | 0.00 | 1016.2 | |
| 20260830100816 | 84 | 211 | 2.0 | 2.0 | 0.00 | 0.00 | 0.00 | 1016.3 | |
| 20260830095808 | 83 | 297 | 1.0 | 2.0 | 0.00 | 0.00 | 0.00 | 1016.4 | |
| 20260830094810 | 84 | 297 | 1.0 | 4.0 | 0.00 | 0.00 | 0.00 | 1016.4 | |
| 20260830093843 | 83 | 6 | 0.0 | 0.0 | 0.00 | 0.00 | 0.00 | 1016.5 | |
| 20260830093812 | 83 | 6 | 0.0 | 0.0 | 0.00 | 0.00 | 0.00 | 1016.5 | |
| 20260830092847 | 83 | 298 | 0.0 | 0.0 | 0.00 | 0.00 | 0.00 | 1016.6 | |
| 20260830092815 | 83 | 298 | 0.0 | 0.0 | 0.00 | 0.00 | 0.00 | 1016.6 | |
| 20260830091817 | 80 | 298 | 0.0 | 0.0 | 0.00 | 0.00 | 0.00 | 1016.7 | |
| 20260830090820 | 80 | 330 | 2.0 | 1.0 | 0.00 | 0.00 | 0.00 | 1016.8 | |
| 20260830085813 | 79 | 246 | 3.0 | 3.0 | 0.00 | 0.00 | 0.00 | 1016.8 | |
| 20260830084815 | 78 | 283 | 4.0 | 3.0 | 0.00 | 0.00 | 0.00 | 1016.8 | |
| 20260830083815 | 77 | 284 | 7.0 | 5.0 | 0.00 | 0.00 | 0.00 | 1016.8 | |
| 20260830082816 | 76 | 338 | 4.0 | 6.0 | 0.00 | 0.00 | 0.00 | 1016.8 | |
| 20260830081810 | 75 | 333 | 4.0 | 4.0 | 0.00 | 0.00 | 0.00 | 1016.8 | |
| 20260830080812 | 75 | 1 | 4.0 | 3.0 | 0.00 | 0.00 | 0.00 | 1016.8 | |
| 20260830075815 | 74 | 316 | 3.0 | 6.0 | 0.00 | 0.00 | 0.00 | 1016.8 | |
| 20260830074810 | 73 | 315 | 6.0 | 6.0 | 0.00 | 0.00 | 0.00 | 1016.5 | |
| 20260830073813 | 72 | 300 | 5.0 | 7.0 | 0.00 | 0.00 | 0.00 | 1016.7 | |
| 20260830072815 | 70 | 321 | 6.0 | 8.0 | 0.00 | 0.00 | 0.00 | 1016.8 | |
| 20260830071818 | 70 | 342 | 7.0 | 4.0 | 0.00 | 0.00 | 0.00 | 1016.7 | |
| 20260830070820 | 69 | 323 | 5.0 | 7.0 | 0.00 | 0.00 | 0.00 | 1016.7 | |
| 20260830065819 | 69 | 319 | 5.0 | 9.0 | 0.00 | 0.00 | 0.00 | 1016.7 | |
| 20260830064817 | 68 | 316 | 5.0 | 7.0 | 0.00 | 0.00 | 0.00 | 1016.7 | |
| 20260830063812 | 68 | 309 | 6.0 | 9.0 | 0.00 | 0.00 | 0.00 | 1016.7 | |
| 20260830062814 | 67 | 298 | 7.0 | 4.0 | 0.00 | 0.00 | 0.00 | 1016.6 | |
| 20260830061812 | 66 | 330 | 6.0 | 8.0 | 0.00 | 0.00 | 0.00 | 1016.7 | |
| 20260830060815 | 66 | 328 | 8.0 | 7.0 | 0.00 | 0.00 | 0.00 | 1016.6 | |
| 20260830055815 | 66 | 312 | 9.0 | 6.0 | 0.00 | 0.00 | 0.00 | 1016.6 | |
| 20260830054818 | 66 | 328 | 7.0 | 6.0 | 0.00 | 0.00 | 0.00 | 1016.2 | |
| 20260830053820 | 66 | 309 | 5.0 | 6.0 | 0.00 | 0.00 | 0.00 | 1016.1 | |
| 20260830052817 | 67 | 302 | 6.0 | 7.0 | 0.00 | 0.00 | 0.00 | 1016.1 | |
| 20260830051930 | 67 | 343 | 7.0 | 5.0 | 0.00 | 0.00 | 0.00 | 1016.1 | |
| 20260830051819 | 67 | 343 | 7.0 | 5.0 | 0.00 | 0.00 | 0.00 | 1016.1 | |
| 20260830050815 | 66 | 328 | 7.0 | 8.0 | 0.00 | 0.00 | 0.00 | 1016.0 | |
| 20260830045817 | 67 | 305 | 6.0 | 8.0 | 0.00 | 0.00 | 0.00 | 1016.1 | |
| 20260830044820 | 66 | 297 | 5.0 | 4.0 | 0.00 | 0.00 | 0.00 | 1016.1 | |
| 20260830043822 | 67 | 297 | 4.0 | 4.0 | 0.00 | 0.00 | 0.00 | 1016.1 | |
| 20260830042825 | 67 | 312 | 5.0 | 7.0 | 0.00 | 0.00 | 0.00 | 1016.1 | |
| 20260830041819 | 67 | 309 | 6.0 | 7.0 | 0.00 | 0.00 | 0.00 | 1016.1 | |
| 20260830040821 | 67 | 281 | 6.0 | 6.0 | 0.00 | 0.00 | 0.00 | 1016.2 | |
| 20260830035824 | 68 | 343 | 1.0 | 3.0 | 0.00 | 0.00 | 0.00 | 1016.2 | |
| 20260830034826 | 67 | 235 | 5.0 | 4.0 | 0.00 | 0.00 | 0.00 | 1016.2 | |
| 20260830033829 | 67 | 300 | 6.0 | 8.0 | 0.00 | 0.00 | 0.00 | 1016.1 | |
| 20260830032831 | 68 | 302 | 7.0 | 5.0 | 0.00 | 0.00 | 0.00 | 1016.1 | |
| 20260830031834 | 68 | 328 | 1.0 | 5.0 | 0.00 | 0.00 | 0.00 | 1016.0 | |
| 20260830030825 | 68 | 322 | 4.0 | 5.0 | 0.00 | 0.00 | 0.00 | 1016.0 | |
| 20260830025827 | 68 | 298 | 4.0 | 5.0 | 0.00 | 0.00 | 0.00 | 1016.1 | |
| 20260830024830 | 68 | 326 | 4.0 | 4.0 | 0.00 | 0.00 | 0.00 | 1016.0 | |
| 20260830023832 | 69 | 287 | 4.0 | 6.0 | 0.00 | 0.00 | 0.00 | 1016.0 | |
| 20260830022831 | 69 | 316 | 5.0 | 5.0 | 0.00 | 0.00 | 0.00 | 1016.1 | |
| 20260830021823 | 69 | 300 | 4.0 | 6.0 | 0.00 | 0.00 | 0.00 | 1016.1 | |
| 20260830020826 | 69 | 335 | 6.0 | 3.0 | 0.00 | 0.00 | 0.00 | 1016.2 | |
| 20260830015817 | 68 | 346 | 4.0 | 3.0 | 0.00 | 0.00 | 0.00 | 1016.2 |